Rutherfordton, NC

2:29 PM EDT on October 22, 2017 (GMT -0400)
Rutherford County-Marchman

Weather History for KFQD - February, 2013

Change the Weather History Date:

Friday, February 8, 2013

  Actual Average (KAVL) Record (KAVL)
Temperature  
Mean Temperature 48 °F -  
Max Temperature 59 °F 48 °F 70 °F (1937)
Min Temperature 35 °F 23 °F -9 °F (1895)
Degree Days  
Heating Degree Days 17    
Moisture  
Dew Point 36 °F    
Average Humidity 71    
Maximum Humidity 96    
Minimum Humidity 38    
Precipitation  
Precipitation 0.00 in - - ()
Sea Level Pressure  
Sea Level Pressure 29.97 in    
Wind  
Wind Speed 6 mph (NW)    
Max Wind Speed 16 mph    
Max Gust Speed 29 mph    
Visibility 10 miles    
Events      
Averages and records for this station are not official NWS values.
T = Trace of Precipitation, MM = Missing Value Source: NWS Daily Summary

Daily Weather History Graph

Daily Weather History Graph

Search for Another Location

Airport or City:

Trip Planner

Search our weather history database for the weather conditions in past years. The results will help you decide how hot, cold, wet, or windy it might be!

Date:

Astronomy

Feb. 08, 2013 Rise Set
Actual Time 7:21 AM EST 6:03 PM EST
Civil Twilight 6:54 AM EST 6:29 PM EST
Nautical Twilight 6:24 AM EST 6:59 PM EST
Astronomical Twilight 5:54 AM EST 7:29 PM EST
Moon 5:47 AM EST (2/8) 4:36 PM EST (2/8)
Length of Visible Light 11h 34m
Length of Day
10h 42m
Waning Crescent, 3% of the Moon is Illuminated
Feb 8
Waning Crescent
Feb 10
New
Feb 17
First Quarter
Feb 25
Full
Mar 4
Last Quarter

Hourly Weather History & Observations

Time (EST) Temp. Windchill Dew Point Humidity Pressure Visibility Wind Dir Wind Speed Gust Speed Precip Events Conditions
12:15 AM 39.2 °F 35.0 °F 37.8 °F 95% 30.01 in 7.0 mi North 5.8 mph - N/A   Overcast
12:35 AM 39.2 °F 34.2 °F 37.6 °F 94% 30.00 in 7.0 mi North 6.9 mph - N/A   Overcast
12:55 AM 39.2 °F 32.0 °F 37.4 °F 93% 29.99 in 10.0 mi NNE 11.5 mph - N/A   Overcast
1:15 AM 39.2 °F 33.6 °F 37.2 °F 93% 29.98 in 10.0 mi North 8.1 mph - N/A   Overcast
1:35 AM 39.4 °F 33.2 °F 37.4 °F 93% 29.97 in 10.0 mi North 9.2 mph - N/A   Overcast
1:55 AM 39.6 °F 34.7 °F 37.4 °F 92% 29.96 in 10.0 mi North 6.9 mph - N/A   Overcast
2:15 AM 39.6 °F 34.7 °F 37.4 °F 92% 29.95 in 10.0 mi North 6.9 mph - N/A   Overcast
2:35 AM 39.4 °F 34.5 °F 37.6 °F 93% 29.95 in 10.0 mi North 6.9 mph - N/A   Overcast
2:55 AM 39.7 °F 33.7 °F 37.4 °F 91% 29.95 in 10.0 mi North 9.2 mph - N/A   Overcast
3:15 AM 40.1 °F 36.9 °F 37.6 °F 91% 29.95 in 10.0 mi North 4.6 mph - N/A   Light Drizzle
3:35 AM 40.6 °F 36.0 °F 37.9 °F 90% 29.94 in 10.0 mi NE 6.9 mph - N/A   Light Drizzle
3:55 AM 40.5 °F 35.1 °F 37.9 °F 91% 29.93 in 10.0 mi NNE 8.1 mph - N/A   Overcast
4:35 AM 41.0 °F 36.4 °F 37.9 °F 89% 29.94 in 10.0 mi NNE 6.9 mph - N/A   Overcast
4:55 AM 41.0 °F - 37.9 °F 89% 29.94 in 10.0 mi Calm Calm - N/A   Overcast
5:15 AM 41.0 °F 39.0 °F 37.9 °F 89% 29.93 in 10.0 mi NNW 3.5 mph - N/A   Overcast
5:35 AM 40.3 °F - 38.3 °F 93% 29.93 in 10.0 mi Calm Calm - N/A   Overcast
5:55 AM 39.6 °F - 38.3 °F 95% 29.93 in 10.0 mi Calm Calm - N/A   Overcast
6:15 AM 39.2 °F 37.0 °F 37.6 °F 94% 29.93 in 10.0 mi NNW 3.5 mph - N/A   Overcast
6:35 AM 39.2 °F - 37.8 °F 95% 29.93 in 10.0 mi Calm Calm - N/A   Overcast
7:15 AM 38.5 °F 36.1 °F 37.0 °F 95% 29.93 in 10.0 mi NW 3.5 mph - N/A   Scattered Clouds
7:35 AM 38.3 °F - 37.2 °F 96% 29.93 in 10.0 mi Calm Calm - N/A   Clear
7:55 AM 38.5 °F - 37.4 °F 96% 29.94 in 10.0 mi Calm Calm - N/A   Clear
8:15 AM 40.5 °F 38.4 °F 38.3 °F 92% 29.94 in 10.0 mi WNW 3.5 mph - N/A   Clear
8:35 AM 41.9 °F 40.0 °F 39.2 °F 90% 29.95 in 10.0 mi WNW 3.5 mph - N/A   Clear
8:55 AM 43.3 °F 41.7 °F 40.1 °F 88% 29.96 in 10.0 mi WSW 3.5 mph - N/A   Scattered Clouds
9:15 AM 44.8 °F - 40.3 °F 84% 29.95 in 10.0 mi Calm Calm - N/A   Overcast
9:35 AM 44.8 °F - 40.5 °F 85% 29.95 in 10.0 mi Calm Calm - N/A   Overcast
9:55 AM 46.8 °F - 40.8 °F 80% 29.95 in 10.0 mi West 3.5 mph - N/A   Overcast
10:15 AM 45.9 °F 43.6 °F 41.0 °F 83% 29.95 in 10.0 mi West 4.6 mph - N/A   Overcast
10:35 AM 46.2 °F - 41.2 °F 83% 29.95 in 10.0 mi Calm Calm - N/A   Overcast
10:55 AM 47.5 °F - 42.3 °F 82% 29.95 in 10.0 mi South 3.5 mph - N/A   Mostly Cloudy
11:15 AM 50.2 °F - 43.2 °F 77% 29.94 in 10.0 mi SW 4.6 mph - N/A   Mostly Cloudy
11:35 AM 50.9 °F - 43.9 °F 77% 29.94 in 10.0 mi SW 6.9 mph - N/A   Mostly Cloudy
11:55 AM 53.2 °F - 44.2 °F 72% 29.93 in 10.0 mi SW 4.6 mph - N/A   Scattered Clouds
12:15 PM 54.9 °F - 45.0 °F 69% 29.92 in 10.0 mi SW 10.4 mph - N/A   Scattered Clouds
12:35 PM 55.9 °F - 45.5 °F 68% 29.91 in 10.0 mi SW 4.6 mph - N/A   Overcast
12:55 PM 58.1 °F - 43.9 °F 59% 29.90 in 10.0 mi WNW 12.7 mph 18.4 mph N/A   Mostly Cloudy
1:15 PM 59.7 °F - 42.6 °F 53% 29.89 in 10.0 mi WNW 16.1 mph 28.8 mph N/A   Scattered Clouds
1:35 PM 57.4 °F - 41.7 °F 56% 29.89 in 10.0 mi WNW 15.0 mph 26.5 mph N/A   Scattered Clouds
1:55 PM 56.5 °F - 41.4 °F 57% 29.89 in 10.0 mi West 16.1 mph 21.9 mph N/A   Scattered Clouds
2:15 PM 56.3 °F - 41.5 °F 58% 29.90 in 10.0 mi West 16.1 mph 21.9 mph N/A   Mostly Cloudy
2:35 PM 55.8 °F - 41.2 °F 58% 29.89 in 10.0 mi WNW 11.5 mph 20.7 mph N/A   Mostly Cloudy
2:55 PM 56.1 °F - 39.9 °F 55% 29.90 in 10.0 mi WNW 13.8 mph 21.9 mph N/A   Scattered Clouds
3:15 PM 56.3 °F - 37.6 °F 50% 29.90 in 10.0 mi West 9.2 mph - N/A   Mostly Cloudy
3:35 PM 56.1 °F - 35.6 °F 46% 29.91 in 10.0 mi West 9.2 mph - N/A   Mostly Cloudy
3:55 PM 57.6 °F - 34.3 °F 42% 29.91 in 10.0 mi NW 13.8 mph - N/A   Mostly Cloudy
4:15 PM 58.8 °F - 33.1 °F 38% 29.92 in 10.0 mi WNW 6.9 mph - N/A   Overcast
4:35 PM 57.9 °F - 32.2 °F 38% 29.92 in 10.0 mi WNW 12.7 mph 17.3 mph N/A   Overcast
4:55 PM 56.8 °F - 31.3 °F 38% 29.93 in 10.0 mi WNW 13.8 mph 18.4 mph N/A   Overcast
5:15 PM 55.6 °F - 30.7 °F 39% 29.94 in 10.0 mi WNW 12.7 mph 17.3 mph N/A   Overcast
5:35 PM 54.1 °F - 29.7 °F 39% 29.95 in 10.0 mi NW 10.4 mph 16.1 mph N/A   Overcast
5:55 PM 52.2 °F - 28.9 °F 41% 29.96 in 10.0 mi WNW 5.8 mph - N/A   Overcast
6:35 PM 49.1 °F - 28.2 °F 44% 29.98 in 10.0 mi Calm Calm - N/A   Overcast
6:55 PM 48.2 °F - 28.9 °F 47% 29.99 in 10.0 mi Calm Calm - N/A   Overcast
7:15 PM 48.2 °F - 27.5 °F 45% 30.00 in 10.0 mi North 6.9 mph - N/A   Overcast
7:35 PM 47.3 °F - 28.0 °F 47% 30.01 in 10.0 mi North 6.9 mph - N/A   Overcast
7:55 PM 46.8 °F - 28.4 °F 49% 30.02 in 10.0 mi NNW 5.8 mph - N/A   Overcast
8:15 PM 45.9 °F 43.6 °F 28.8 °F 51% 30.03 in 10.0 mi NNW 4.6 mph - N/A   Overcast
8:35 PM 45.0 °F 43.5 °F 28.9 °F 53% 30.04 in 10.0 mi North 3.5 mph - N/A   Overcast
8:55 PM 44.1 °F 42.5 °F 28.6 °F 55% 30.06 in 10.0 mi NNW 3.5 mph - N/A   Overcast
9:15 PM 43.0 °F 39.5 °F 28.4 °F 56% 30.07 in 10.0 mi North 5.8 mph - N/A   Overcast
9:35 PM 42.8 °F 40.1 °F 28.0 °F 56% 30.08 in 10.0 mi North 4.6 mph - N/A   Overcast
9:55 PM 41.9 °F 40.0 °F 27.9 °F 58% 30.09 in 10.0 mi North 3.5 mph - N/A   Overcast
10:15 PM 41.2 °F 37.3 °F 28.0 °F 60% 30.10 in 10.0 mi North 5.8 mph - N/A   Overcast
10:35 PM 40.5 °F 36.5 °F 27.9 °F 61% 30.10 in 10.0 mi NNE 5.8 mph - N/A   Overcast
10:55 PM 39.7 °F - 27.7 °F 62% 30.11 in 10.0 mi Calm Calm - N/A   Overcast
11:15 PM 39.0 °F - 27.3 °F 63% 30.11 in 10.0 mi Calm Calm - N/A   Overcast
11:35 PM 37.8 °F - 27.3 °F 66% 30.12 in 10.0 mi Calm Calm - N/A   Overcast
11:55 PM 35.8 °F - 28.0 °F 73% 30.12 in 10.0 mi Calm Calm - N/A   Scattered Clouds